TimeCDT,TemperatureF,Dew PointF,Humidity,Sea Level PressureIn,VisibilityMPH,Wind Direction,Wind SpeedMPH,Gust SpeedMPH,PrecipitationIn,Events,Conditions,WindDirDegrees,DateUTC
12:15 AM,67.3,65.3,93,29.97,10.0,Calm,Calm,-,N/A,,Scattered Clouds,0,2013-06-19 05:15:00
12:35 AM,66.7,66.7,100,29.97,10.0,Calm,Calm,-,N/A,,Clear,0,2013-06-19 05:35:00
12:55 AM,66.6,66.6,100,29.97,10.0,Calm,Calm,-,N/A,,Clear,0,2013-06-19 05:55:00
1:15 AM,66.2,66.2,100,29.97,10.0,Calm,Calm,-,N/A,,Clear,0,2013-06-19 06:15:00
1:35 AM,66.0,66.0,100,29.97,10.0,Calm,Calm,-,N/A,,Clear,0,2013-06-19 06:35:00
1:55 AM,65.5,65.5,100,29.97,7.0,Calm,Calm,-,N/A,,Clear,0,2013-06-19 06:55:00
2:15 AM,65.3,65.3,100,29.97,10.0,Calm,Calm,-,N/A,,Clear,0,2013-06-19 07:15:00
2:35 AM,65.3,65.3,100,29.97,7.0,Calm,Calm,-,N/A,,Clear,0,2013-06-19 07:35:00
2:55 AM,65.1,65.1,100,29.96,7.0,Calm,Calm,-,N/A,,Clear,0,2013-06-19 07:55:00
3:15 AM,65.1,65.1,100,29.97,7.0,North,3.5,-,N/A,,Clear,360,2013-06-19 08:15:00
3:35 AM,65.3,65.3,100,29.97,7.0,Calm,Calm,-,N/A,,Clear,0,2013-06-19 08:35:00
3:55 AM,64.9,64.9,100,29.98,7.0,Calm,Calm,-,N/A,,Clear,0,2013-06-19 08:55:00
4:15 AM,64.6,64.6,100,29.98,7.0,Calm,Calm,-,N/A,,Clear,0,2013-06-19 09:15:00
4:35 AM,64.8,64.8,100,29.99,10.0,Calm,Calm,-,N/A,,Clear,0,2013-06-19 09:35:00
4:55 AM,64.6,64.6,100,30.00,10.0,Calm,Calm,-,N/A,,Clear,0,2013-06-19 09:55:00
5:15 AM,64.0,64.0,100,30.01,10.0,Calm,Calm,-,N/A,,Clear,0,2013-06-19 10:15:00
5:35 AM,63.7,63.7,100,30.01,10.0,Calm,Calm,-,N/A,,Clear,0,2013-06-19 10:35:00
5:55 AM,63.5,63.5,100,30.02,10.0,Calm,Calm,-,N/A,,Clear,0,2013-06-19 10:55:00
6:15 AM,64.0,64.0,100,30.03,10.0,Calm,Calm,-,N/A,,Clear,0,2013-06-19 11:15:00
6:35 AM,64.8,64.6,99,30.03,10.0,Calm,Calm,-,N/A,,Clear,0,2013-06-19 11:35:00
6:55 AM,65.5,64.2,96,30.04,10.0,NE,3.5,-,N/A,,Clear,50,2013-06-19 11:55:00
7:15 AM,66.9,62.2,85,30.04,10.0,NE,3.5,-,N/A,,Clear,50,2013-06-19 12:15:00
7:35 AM,68.4,61.5,79,30.04,10.0,ENE,3.5,-,N/A,,Clear,70,2013-06-19 12:35:00
7:55 AM,69.8,61.5,75,30.04,10.0,ENE,4.6,-,N/A,,Clear,70,2013-06-19 12:55:00
8:15 AM,70.7,61.9,74,30.05,10.0,East,5.8,-,N/A,,Clear,80,2013-06-19 13:15:00
8:35 AM,72.1,62.2,71,30.05,10.0,East,4.6,-,N/A,,Clear,80,2013-06-19 13:35:00
8:55 AM,73.6,62.1,67,30.06,10.0,East,5.8,-,N/A,,Clear,100,2013-06-19 13:55:00
9:15 AM,74.3,61.5,64,30.07,10.0,ENE,4.6,-,N/A,,Clear,70,2013-06-19 14:15:00
9:35 AM,75.2,61.5,62,30.06,10.0,East,4.6,-,N/A,,Clear,100,2013-06-19 14:35:00
9:55 AM,76.5,61.7,60,30.06,10.0,Calm,Calm,-,N/A,,Clear,0,2013-06-19 14:55:00
10:15 AM,77.4,61.0,57,30.07,10.0,SE,3.5,-,N/A,,Clear,140,2013-06-19 15:15:00
10:35 AM,78.4,61.2,55,30.07,10.0,NNE,3.5,-,N/A,,Clear,20,2013-06-19 15:35:00
10:55 AM,79.3,59.7,51,30.07,10.0,NNE,3.5,-,N/A,,Clear,30,2013-06-19 15:55:00
11:15 AM,79.7,60.6,52,30.07,10.0,North,4.6,-,N/A,,Clear,10,2013-06-19 16:15:00
11:35 AM,80.2,60.4,51,30.07,10.0,SE,4.6,-,N/A,,Clear,130,2013-06-19 16:35:00
11:55 AM,81.1,61.3,51,30.07,10.0,North,3.5,-,N/A,,Clear,360,2013-06-19 16:55:00
12:15 PM,81.7,59.2,46,30.07,10.0,East,4.6,-,N/A,,Clear,90,2013-06-19 17:15:00
12:35 PM,82.4,60.3,47,30.06,10.0,ESE,4.6,-,N/A,,Clear,120,2013-06-19 17:35:00
12:55 PM,82.8,61.5,49,30.06,10.0,East,3.5,-,N/A,,Scattered Clouds,100,2013-06-19 17:55:00
1:15 PM,83.8,60.1,44,30.05,10.0,Calm,Calm,-,N/A,,Scattered Clouds,0,2013-06-19 18:15:00
1:35 PM,83.7,61.0,46,30.05,10.0,East,8.1,-,N/A,,Mostly Cloudy,80,2013-06-19 18:35:00
1:55 PM,84.7,61.0,45,30.05,10.0,North,3.5,-,N/A,,Scattered Clouds,10,2013-06-19 18:55:00
2:15 PM,83.8,59.5,44,30.05,10.0,NNW,3.5,-,N/A,,Scattered Clouds,330,2013-06-19 19:15:00
2:35 PM,83.7,61.3,47,30.05,10.0,East,6.9,-,N/A,,Scattered Clouds,100,2013-06-19 19:35:00
3:35 PM,85.5,60.4,43,30.04,10.0,ENE,5.8,-,N/A,,Scattered Clouds,70,2013-06-19 20:35:00
3:55 PM,84.2,62.1,47,30.04,10.0,NNE,6.9,-,N/A,,Mostly Cloudy,30,2013-06-19 20:55:00
4:15 PM,83.7,63.1,50,30.03,10.0,ENE,4.6,-,N/A,,Scattered Clouds,60,2013-06-19 21:15:00
4:35 PM,83.3,62.8,50,30.03,10.0,ENE,5.8,-,N/A,,Scattered Clouds,70,2013-06-19 21:35:00
4:55 PM,84.2,62.4,48,30.03,10.0,NNE,6.9,-,N/A,,Clear,30,2013-06-19 21:55:00
5:15 PM,84.2,61.7,47,30.03,10.0,East,6.9,-,N/A,,Clear,90,2013-06-19 22:15:00
5:35 PM,84.0,62.4,48,30.04,10.0,ENE,5.8,-,N/A,,Clear,70,2013-06-19 22:35:00
5:55 PM,83.8,61.5,47,30.04,10.0,NNE,4.6,-,N/A,,Clear,30,2013-06-19 22:55:00
6:15 PM,83.3,61.7,48,30.04,10.0,ENE,3.5,-,N/A,,Clear,70,2013-06-19 23:15:00
6:35 PM,82.4,61.5,49,30.04,10.0,Calm,Calm,-,N/A,,Clear,0,2013-06-19 23:35:00
6:55 PM,82.0,61.3,49,30.04,10.0,Calm,Calm,-,N/A,,Scattered Clouds,0,2013-06-19 23:55:00
7:15 PM,81.0,61.9,52,30.04,10.0,Calm,Calm,-,N/A,,Clear,0,2013-06-20 00:15:00
7:35 PM,79.7,61.7,54,30.04,10.0,Calm,Calm,-,N/A,,Clear,0,2013-06-20 00:35:00
7:55 PM,78.1,62.2,58,30.05,10.0,Calm,Calm,-,N/A,,Clear,0,2013-06-20 00:55:00
8:15 PM,76.1,62.2,62,30.06,10.0,Calm,Calm,-,N/A,,Clear,0,2013-06-20 01:15:00
8:35 PM,74.8,61.7,64,30.05,10.0,Calm,Calm,-,N/A,,Clear,0,2013-06-20 01:35:00
8:55 PM,74.1,61.7,65,30.06,10.0,Calm,Calm,-,N/A,,Clear,0,2013-06-20 01:55:00
9:15 PM,73.4,61.7,67,30.07,10.0,East,3.5,-,N/A,,Clear,80,2013-06-20 02:15:00
9:35 PM,72.1,61.9,70,30.08,10.0,Calm,Calm,-,N/A,,Clear,0,2013-06-20 02:35:00
9:55 PM,71.4,61.7,71,30.08,10.0,Calm,Calm,-,N/A,,Clear,0,2013-06-20 02:55:00
10:15 PM,70.2,61.5,74,30.08,10.0,Calm,Calm,-,N/A,,Clear,0,2013-06-20 03:15:00
10:35 PM,69.4,61.9,77,30.09,10.0,Calm,Calm,-,N/A,,Clear,0,2013-06-20 03:35:00
10:55 PM,68.7,61.9,79,30.09,10.0,Calm,Calm,-,N/A,,Clear,0,2013-06-20 03:55:00
11:15 PM,67.6,62.1,82,30.10,10.0,Calm,Calm,-,N/A,,Clear,0,2013-06-20 04:15:00
11:35 PM,68.0,62.4,82,30.11,10.0,Calm,Calm,-,N/A,,Clear,0,2013-06-20 04:35:00
11:55 PM,67.6,62.6,84,30.11,10.0,Calm,Calm,-,N/A,,Clear,0,2013-06-20 04:55:00